CZ-6A DEB

Satellite information

Favourite Embed

Satellite Type and Status

DEBRISIN ORBIT

Key statistics

Satellite CZ-6A DEB at a glance.

Uptime

438

Days in orbit

Revolutions

≈ 14.1

Per day

Orbit

LEO

Low Earth Orbit

Inclination

89.3

Latest

Satellite identification and parameters

Extended collection of information and parameters for CZ-6A DEB.

Object identification

Identified? True

Debris? True

Object name: CZ-6A DEB

International designator: 2024-140LE

Object number (NORAD): 60899

Object ID (CCSDS): 60899

Country: PEOPLES REPUBLIC OF CHINA (PRC)

Current information (Y/N): Y

RCS size: SMALL

Orbital parameters

Period: 101.97 minutes

Inclination: 89.2513 deg

SMA: 7230.039 km

Apoapsis: 910.791 km

Periapsis: 793.016 km

RAAN: 315.3173 deg

Eccentricy: 0.00814482

Argument of periapsis: 284.8095 deg

Mean anomaly: 74.4078 deg

Mean motion: 14.12185793 rev/day

Mean motion (dot): 0.00000862 rev/day2

B* drag term: 0.00044851749 1/REarth

Two-line elements (TLE)

Creation date: Oct. 18, 2025, 2:17 a.m.

Reference frame: TEME

Reference center: EARTH

Epoch: Oct. 17, 2025, 9:44 p.m. UTC

TLE line 0: 0 CZ-6A DEB

TLE line 1: 1 60899U 24140LE 25290.90614758 .00000862 00000-0 44852-3 0 9993

TLE line 2: 2 60899 89.2513 315.3173 0081448 284.8095 74.4078 14.12185793 60014

Live tracking on map

Real-time ground track for satellite CZ-6A DEB.

In-orbit conjunctions

A list of the most updated potential collisions computed for object CZ-6A DEB.

Target Orbit TCA Probability of collision Miss distance Type
FENGYUN 1C DEB SSO 2025-02-09 11:33:35 0.0001192556 974.0 (m) DEBRIS
COSMOS 1275 DEB LEO 2025-02-04 00:51:28 0.0001464959 759.0 (m) DEBRIS
SKIPPER SSO 2024-11-13 03:04:09 0.000119004 301.0 (m) PAYLOAD
CZ-6A DEB LEO 2024-10-20 04:54:25 0.000194566 299.0 (m) DEBRIS
FENGYUN 1C DEB SSO 2024-10-11 06:27:01 0.000173716 475.0 (m) DEBRIS

Associated space launch

18 Low Earth Orbit communication satellites with Ku, Q and V band payloads for the G60 constellation operated by Shanghai Spacecom Satellite Technology (SSST) with funding backed by the Shanghai local government. Initial constellation will consist of 1296 satellites by 2027 with long term plans to expand it to 12000 satellites.

CZ-6A DEB was lifted into orbit during the mission ‘Long March 6A | G60 Polar Group 01’, on board a Long March 6A space rocket.

The launch took place on Aug. 6, 2024, 6:42 a.m. from Launch Complex 9A.

For more information about the launch, click the button.

Launch to space Long March 6A | G60 Polar Group 01
Long March 6A | G60 Polar Group 01

Agency: N/A

Status: Launch Successful

Launch date: Aug. 6, 2024, 6:42 a.m. UTC

Rocket: Long March 6A

Launch pad: Launch Complex 9A

Location: Taiyuan Satellite Launch Center, People's Republic of China

...

Latest news about this satellite

News about space launch
Brightness of first Chinese broadband constellation satellites alarms astronomers

The first satellites of a Chinese broadband constellation are significantly brighter than those of Western systems, posing a new challenge for astronomers.

News about space launch
Chinese rocket stage breaks up into cloud of more than 700 pieces of space debris

HELSINKI — A Chinese Long March 6A rocket’s upper stage has fragmented into a cloud of over 700 pieces of space debris, adding to concerns about long-term orbital safety. China […]

News about space launch
China's Thousand Sails Megaconstellation Kicks Off with Dangerous Debris Field

China's Thousand Sails Megaconstellation Kicks Off with Dangerous Debris Field


Newsletter sign-up

Weekly statistics, charts and insights to help you stay on top of the space industry.